Temp
4 5 5 5 6 6 6 5 5 5 4 3 2 1 -1 -2 -3 -3 -3 -4 -4 -5 -5 -5 -6 -6 -7 -7 -9 -5 -5 -4 -4 -1 1 -2 -2 -2 -1 0 0 1 1 0 1 2 2
5 5 5 5 5 5 5 4 4 3 2 1 0 -1 -2 -3 -4 -4 -4 -4 -5 -6 -6 -8 -8 -7 -7 -9 -8 -9 -6 -5 -5 -5 -3 -3 -3 -1 -1 -0 0 1 0 1 1 1 2
4 5 5 5 5 5 3 3 2 1 1 1 -1 -3 -3 -4 -4 -4 -5 -5 -6 -6 -7 -8 -8 -9 -9 -8 -10 -10 -9 -7 -7 -6 -4 -3 -3 -3 -2 -1 0 1 1 0 1 2 2
5 5 5 5 4 4 3 1 1 1 -0 -1 -2 -3 -3 -4 -5 -5 -5 -6 -6 -7 -8 -8 -8 -8 -10 -10 -10 -10 -8 -7 -7 -6 -5 -4 -3 -3 -3 -1 -0 -1 -0 -0 1 1 2
5 5 4 4 4 3 2 2 0 -0 -1 -2 -3 -4 -4 -5 -5 -5 -6 -6 -7 -8 -8 -8 -9 -10 -9 -10 -10 -10 -9 -9 -9 -7 -7 -6 -5 -3 -3 -2 -2 -0 -1 1 1 2 2
4 4 4 4 3 3 3 1 -1 -2 -3 -3 -3 -4 -4 -5 -6 -6 -6 -7 -6 -8 -9 -9 -10 -9 -9 -10 -11 -11 -9 -9 -9 -8 -8 -7 -7 -5 -2 -3 -2 -1 1 1 2 2 2
4 4 4 3 3 2 1 -1 -2 -3 -3 -4 -4 -5 -5 -6 -6 -6 -6 -7 -8 -8 -9 -9 -10 -11 -10 -11 -10 -10 -10 -9 -8 -9 -8 -7 -7 -6 -3 -3 -1 -0 1 2 2 3 2
4 3 3 3 2 1 -1 -2 -3 -3 -4 -4 -4 -5 -5 -6 -6 -7 -7 -9 -10 -10 -8 -9 -10 -10 -11 -11 -10 -10 -10 -9 -9 -8 -8 -7 -6 -5 -4 -3 -3 -1 1 2 3 3 3
3 3 3 2 1 -0 -1 -2 -3 -4 -4 -4 -4 -5 -6 -6 -7 -7 -8 -9 -10 -10 -9 -10 -10 -10 -11 -10 -10 -11 -10 -9 -8 -8 -8 -7 -5 -6 -5 -3 -3 -3 -1 1 2 3 3
2 3 2 1 0 -1 -1 -2 -3 -4 -4 -5 -5 -5 -6 -6 -6 -7 -8 -9 -9 -9 -10 -9 -10 -10 -11 -10 -10 -11 -11 -11 -10 -8 -8 -8 -6 -5 -5 -4 -4 -3 -2 -0 2 2 2
2 2 2 1 0 -0 -2 -3 -4 -4 -5 -5 -5 -6 -7 -6 -7 -7 -8 -8 -9 -9 -8 -9 -10 -11 -11 -10 -10 -10 -11 -10 -11 -10 -10 -7 -6 -6 -6 -5 -4 -3 -2 -2 -1 2 1
1 1 1 -0 -1 -1 -2 -3 -4 -4 -5 -5 -5 -6 -7 -6 -7 -8 -8 -8 -9 -8 -9 -10 -10 -10 -10 -10 -10 -10 -11 -10 -10 -11 -9 -8 -7 -6 -5 -4 -5 -4 -3 -2 -1 0 0
0 0 0 -1 -2 -2 -2 -3 -4 -4 -5 -5 -5 -7 -7 -7 -7 -8 -8 -9 -8 -9 -10 -10 -11 -11 -10 -10 -10 -10 -10 -11 -12 -11 -10 -9 -6 -6 -5 -4 -5 -5 -3 -3 -3 -3 -2
-0 -0 -1 -1 -2 -2 -3 -4 -4 -5 -5 -5 -6 -7 -7 -7 -8 -8 -8 -9 -9 -10 -11 -11 -11 -10 -10 -11 -11 -11 -10 -11 -12 -13 -12 -11 -5 -7 -6 -5 -4 -4 -4 -2 -3 -2 1
-1 -1 -1 -2 -2 -2 -3 -4 -4 -5 -5 -6 -6 -7 -7 -7 -8 -8 -10 -10 -11 -12 -12 -12 -11 -10 -10 -11 -11 -11 -11 -12 -12 -13 -13 -11 -8 -9 -7 -5 -5 -4 -4 -2 1 1 3
-2 -2 -2 -3 -3 -3 -3 -4 -5 -5 -5 -6 -6 -6 -8 -7 -7 -8 -10 -11 -11 -12 -12 -12 -11 -11 -12 -11 -12 -11 -11 -12 -12 -13 -13 -12 -12 -9 -8 -7 -5 -5 -2 -1 -0 -0 0
-2 -2 -3 -3 -3 -3 -3 -5 -5 -5 -6 -6 -6 -8 -8 -7 -8 -9 -11 -10 -11 -13 -13 -13 -12 -12 -12 -12 -12 -11 -11 -12 -12 -13 -13 -12 -12 -9 -8 -6 -6 -5 -4 -2 -1 1 1
-2 -2 -3 -3 -3 -4 -4 -4 -5 -5 -6 -6 -6 -7 -8 -8 -10 -11 -11 -11 -12 -12 -12 -13 -13 -12 -12 -13 -12 -12 -12 -12 -13 -13 -13 -12 -12 -10 -8 -7 -6 -5 -4 -3 -0 0 1
-2 -2 -3 -3 -4 -4 -4 -4 -5 -6 -6 -6 -7 -7 -8 -9 -10 -9 -10 -12 -12 -12 -11 -12 -13 -13 -13 -13 -12 -12 -12 -12 -12 -12 -12 -12 -11 -10 -7 -7 -6 -6 -7 -5 -3 -0 1
-3 -3 -3 -3 -3 -4 -4 -5 -5 -6 -7 -8 -8 -9 -10 -10 -12 -11 -10 -11 -12 -12 -11 -11 -12 -13 -13 -13 -12 -12 -12 -12 -12 -12 -12 -12 -12 -11 -10 -11 -11 -11 -9 -7 -5 -4 -1
-4 -3 -3 -3 -3 -4 -5 -6 -6 -6 -7 -8 -8 -10 -10 -10 -11 -12 -13 -13 -13 -13 -11 -13 -12 -13 -13 -13 -12 -12 -12 -12 -12 -12 -12 -12 -12 -11 -11 -12 -12 -12 -11 -9 -7 -7 -5
-4 -4 -4 -4 -5 -5 -6 -6 -7 -7 -7 -8 -9 -10 -10 -10 -13 -13 -12 -13 -13 -11 -13 -13 -13 -13 -13 -12 -13 -13 -12 -12 -12 -12 -12 -12 -11 -11 -10 -11 -11 -14 -12 -11 -10 -9 -7
-5 -4 -5 -5 -5 -5 -6 -6 -7 -7 -7 -8 -9 -10 -11 -10 -12 -12 -12 -13 -12 -13 -10 -12 -13 -13 -12 -12 -10 -11 -11 -12 -12 -13 -13 -13 -12 -12 -11 -10 -10 -10 -15 -15 -14 -13 -11
-5 -5 -5 -5 -6 -6 -6 -6 -7 -7 -8 -9 -10 -10 -11 -10 -12 -13 -13 -12 -11 -11 -12 -11 -12 -13 -12 -10 -10 -10 -10 -11 -12 -12 -12 -12 -12 -11 -10 -10 -10 -16 -15 -14 -15 -14 -14
-5 -5 -5 -5 -6 -6 -6 -7 -7 -8 -8 -8 -9 -10 -11 -11 -12 -12 -13 -11 -10 -11 -11 -11 -12 -12 -12 -11 -12 -11 -10 -11 -11 -12 -12 -12 -12 -12 -10 -11 -14 -15 -15 -15 -15 -15 -15
-5 -6 -6 -6 -6 -6 -6 -6 -7 -8 -8 -8 -8 -9 -11 -11 -11 -12 -11 -12 -12 -11 -10 -11 -12 -11 -12 -12 -12 -11 -11 -12 -11 -12 -11 -12 -12 -12 -11 -9 -11 -15 -15 -14 -14 -16 -15
-5 -6 -6 -6 -6 -6 -6 -7 -7 -8 -8 -8 -8 -9 -10 -11 -10 -11 -12 -12 -12 -12 -11 -12 -11 -12 -13 -13 -12 -12 -11 -13 -12 -13 -13 -13 -13 -14 -13 -11 -14 -15 -14 -14 -14 -14 -14
-5 -5 -5 -5 -6 -6 -7 -7 -7 -7 -9 -8 -7 -8 -9 -10 -9 -10 -11 -11 -11 -12 -12 -12 -12 -13 -13 -13 -13 -12 -12 -13 -13 -13 -14 -15 -14 -15 -15 -13 -13 -15 -14 -15 -16 -14 -13
-5 -5 -5 -6 -6 -6 -7 -7 -7 -7 -9 -8 -8 -8 -9 -9 -10 -10 -10 -11 -11 -12 -12 -12 -13 -14 -14 -14 -13 -14 -13 -13 -13 -12 -14 -15 -15 -15 -15 -17 -16 -16 -16 -16 -16 -15 -14
Height
3113 3109 3103 3098 3093 3087 3081 3073 3067 3062 3056 3049 3042 3036 3029 3022 3016 3009 3003 2997 2989 2981 2974 2967 2960 2955 2947 2941 2935 2947 2946 2944 2943 2945 2953 2957 2964 2972 2972 2982 2991 2984 2993 3001 3010 3015 3018
3113 3107 3103 3097 3091 3085 3077 3071 3063 3057 3052 3047 3040 3033 3024 3015 3008 3001 2993 2987 2979 2970 2963 2955 2950 2944 2939 2929 2933 2928 2928 2930 2931 2932 2936 2945 2951 2962 2972 2975 2975 2982 2991 2997 3001 3004 3011
3112 3107 3101 3095 3087 3080 3073 3066 3060 3053 3049 3043 3036 3027 3019 3011 3003 2994 2987 2980 2972 2963 2954 2947 2942 2936 2931 2927 2923 2917 2913 2915 2919 2919 2921 2928 2942 2954 2961 2962 2970 2981 2984 2988 2990 2996 3000
3111 3105 3099 3092 3085 3078 3071 3064 3059 3053 3046 3038 3030 3022 3015 3006 2995 2987 2980 2974 2966 2957 2948 2941 2935 2931 2924 2923 2919 2909 2903 2902 2903 2907 2910 2914 2925 2934 2947 2961 2969 2969 2976 2975 2974 2988 2995
3110 3103 3097 3090 3084 3077 3070 3064 3058 3051 3042 3033 3025 3018 3010 3001 2990 2981 2974 2965 2959 2951 2944 2939 2934 2928 2923 2920 2916 2907 2900 2896 2896 2898 2899 2905 2915 2921 2937 2944 2955 2956 2952 2951 2974 2978 2987
3109 3102 3096 3089 3082 3076 3070 3063 3054 3046 3037 3029 3020 3012 3003 2994 2985 2977 2968 2957 2950 2945 2941 2936 2933 2928 2924 2917 2910 2903 2896 2893 2890 2893 2897 2902 2902 2907 2913 2922 2926 2938 2938 2948 2961 2970 2978
3108 3102 3096 3089 3082 3076 3068 3060 3051 3043 3035 3026 3017 3010 3002 2994 2983 2970 2960 2949 2943 2942 2939 2935 2930 2927 2921 2915 2910 2902 2895 2890 2887 2889 2891 2897 2893 2889 2900 2911 2921 2935 2943 2942 2954 2964 2972
3108 3102 3095 3089 3082 3074 3066 3057 3049 3042 3033 3023 3013 3004 2995 2987 2978 2968 2956 2947 2942 2941 2934 2933 2931 2928 2920 2911 2905 2901 2895 2890 2885 2885 2887 2893 2883 2894 2903 2908 2917 2927 2932 2938 2952 2959 2963
3106 3101 3096 3089 3081 3073 3065 3056 3049 3040 3031 3021 3010 3002 2993 2985 2975 2964 2954 2947 2943 2939 2935 2934 2933 2926 2917 2911 2906 2899 2893 2886 2882 2878 2880 2882 2887 2896 2901 2902 2908 2914 2920 2935 2942 2952 2958
3107 3102 3095 3088 3079 3072 3064 3056 3047 3039 3030 3018 3007 2998 2989 2980 2973 2963 2956 2949 2943 2938 2935 2937 2930 2925 2918 2912 2907 2902 2892 2887 2881 2877 2877 2877 2884 2889 2893 2894 2902 2906 2920 2934 2940 2943 2946
3106 3100 3094 3088 3080 3072 3065 3056 3047 3038 3028 3016 3005 2995 2988 2977 2969 2961 2955 2949 2944 2940 2935 2939 2933 2927 2921 2917 2909 2901 2892 2884 2878 2873 2875 2871 2875 2881 2883 2889 2902 2904 2921 2928 2933 2938 2946
3105 3099 3092 3085 3077 3071 3063 3054 3045 3037 3026 3015 3003 2992 2985 2980 2972 2965 2958 2952 2949 2946 2943 2939 2934 2925 2919 2914 2908 2901 2894 2885 2876 2870 2869 2867 2869 2877 2880 2891 2895 2907 2917 2923 2932 2935 2934
3105 3099 3092 3082 3074 3068 3060 3052 3044 3034 3024 3012 3000 2991 2983 2976 2970 2962 2958 2953 2954 2950 2948 2940 2931 2925 2918 2912 2905 2899 2893 2884 2881 2875 2870 2866 2862 2868 2874 2885 2892 2895 2901 2911 2923 2927 2922
3104 3098 3091 3082 3073 3065 3057 3050 3042 3033 3023 3011 3000 2992 2986 2977 2971 2965 2958 2958 2954 2954 2948 2938 2932 2925 2920 2913 2907 2899 2894 2891 2887 2884 2876 2872 2866 2867 2869 2872 2881 2888 2890 2888 2901 2912 2906
3102 3097 3089 3081 3073 3064 3055 3048 3040 3032 3022 3011 2999 2990 2985 2978 2972 2968 2964 2959 2959 2956 2950 2941 2930 2924 2919 2914 2910 2900 2896 2893 2891 2887 2887 2878 2867 2864 2866 2870 2878 2882 2886 2892 2895 2901 2905
3101 3095 3087 3080 3072 3063 3054 3046 3037 3029 3021 3010 2998 2990 2983 2978 2974 2969 2965 2962 2960 2955 2949 2943 2935 2928 2919 2913 2908 2902 2898 2895 2893 2892 2888 2883 2873 2866 2865 2869 2873 2874 2882 2895 2893 2896 2904
3101 3094 3087 3079 3071 3063 3054 3045 3035 3027 3019 3011 3000 2989 2984 2979 2970 2968 2965 2961 2957 2954 2951 2944 2936 2930 2925 2917 2911 2905 2902 2897 2893 2888 2887 2883 2879 2869 2865 2868 2870 2874 2878 2887 2891 2895 2897
3101 3094 3086 3079 3071 3062 3053 3044 3034 3025 3016 3008 2999 2994 2986 2979 2976 2969 2966 2962 2959 2954 2950 2944 2939 2934 2928 2918 2911 2908 2904 2900 2894 2888 2884 2884 2879 2873 2866 2863 2866 2870 2877 2880 2882 2888 2891
3100 3093 3085 3077 3069 3060 3051 3041 3033 3024 3013 3004 2997 2989 2982 2976 2975 2970 2968 2965 2960 2954 2950 2944 2939 2935 2928 2921 2916 2910 2905 2901 2895 2891 2888 2885 2883 2874 2865 2869 2868 2869 2870 2874 2884 2888 2887
3100 3092 3084 3076 3067 3058 3049 3040 3032 3025 3016 3007 2998 2990 2986 2981 2977 2975 2968 2963 2959 2956 2951 2946 2941 2936 2930 2923 2919 2912 2907 2902 2897 2893 2888 2886 2887 2884 2883 2881 2879 2876 2873 2873 2878 2883 2886
3097 3090 3082 3074 3066 3057 3049 3041 3032 3024 3017 3009 3000 2995 2988 2981 2976 2974 2973 2966 2960 2953 2950 2947 2941 2939 2932 2924 2918 2914 2908 2902 2900 2895 2890 2887 2887 2883 2880 2884 2881 2876 2877 2877 2878 2882 2887
3095 3087 3080 3072 3064 3056 3049 3042 3034 3026 3018 3011 3003 2996 2989 2984 2978 2974 2973 2969 2962 2955 2952 2946 2944 2937 2933 2929 2926 2916 2910 2907 2903 2895 2893 2891 2890 2885 2882 2881 2883 2883 2881 2879 2878 2879 2884
3092 3084 3077 3069 3061 3054 3047 3040 3032 3024 3014 3005 3000 2995 2988 2983 2979 2975 2972 2966 2961 2956 2953 2948 2943 2936 2931 2928 2922 2917 2914 2910 2905 2899 2891 2889 2889 2888 2887 2884 2881 2878 2888 2890 2889 2887 2885
3090 3081 3073 3065 3058 3051 3043 3036 3029 3023 3016 3010 3003 2994 2986 2980 2976 2973 2968 2964 2960 2956 2953 2949 2942 2937 2933 2926 2921 2916 2913 2911 2907 2903 2898 2889 2886 2887 2887 2887 2891 2901 2896 2894 2892 2892 2893
3086 3079 3070 3062 3055 3048 3041 3033 3026 3021 3015 3009 3002 2993 2985 2978 2974 2972 2969 2963 2958 2955 2952 2947 2942 2937 2930 2925 2921 2917 2916 2913 2910 2907 2901 2895 2889 2889 2887 2891 2901 2902 2898 2895 2895 2896 2893
3083 3075 3067 3059 3052 3044 3037 3030 3022 3015 3007 3000 2996 2988 2981 2976 2973 2968 2963 2960 2957 2953 2950 2946 2942 2936 2930 2927 2925 2922 2919 2918 2912 2907 2904 2899 2894 2892 2889 2890 2895 2902 2898 2894 2894 2894 2891
3079 3071 3064 3056 3048 3040 3033 3026 3019 3013 3006 2999 2994 2986 2977 2971 2968 2964 2962 2958 2955 2952 2949 2944 2940 2935 2931 2930 2927 2925 2922 2920 2917 2912 2905 2900 2897 2897 2895 2894 2898 2898 2896 2894 2896 2897 2889
3075 3067 3059 3052 3044 3036 3029 3022 3015 3008 3002 2995 2989 2982 2974 2966 2964 2962 2959 2956 2954 2952 2948 2945 2941 2938 2934 2931 2929 2926 2923 2921 2918 2915 2911 2909 2905 2903 2901 2900 2901 2899 2897 2898 2897 2892 2887
3069 3062 3054 3048 3040 3032 3025 3018 3010 3003 2996 2991 2985 2977 2971 2964 2963 2959 2956 2955 2953 2951 2948 2945 2942 2939 2936 2933 2931 2926 2924 2920 2918 2915 2913 2912 2911 2909 2908 2906 2902 2898 2896 2894 2890 2886 2883
Wind_Speed
27 31 34 36 37 37 37 38 39 38 36 34 33 34 35 36 36 35 35 35 33 35 33 33 34 36 41 43 42 29 24 18 30 48 64 56 59 54 60 55 52 53 46 46 46 40 36
31 34 35 35 35 36 37 37 36 35 33 32 32 34 36 38 39 40 40 37 36 36 35 34 36 38 40 44 34 26 30 39 28 30 49 52 56 58 51 56 55 47 46 39 38 45 40
33 34 34 35 35 36 36 35 35 36 37 36 35 35 37 40 42 42 42 38 37 36 35 35 31 26 28 32 27 31 34 33 33 41 39 53 53 46 52 56 57 45 36 40 46 38 40
31 31 32 33 35 36 36 36 38 38 38 38 37 38 40 41 43 44 42 41 37 35 31 23 14 23 24 16 28 36 30 31 41 48 43 38 60 55 51 48 43 52 45 49 46 45 38
28 29 31 33 34 35 36 37 38 38 39 40 40 40 41 41 42 43 44 45 39 30 18 22 22 21 9 24 29 28 31 20 31 41 34 45 36 40 55 43 50 45 56 60 45 41 43
27 29 31 33 35 37 37 38 38 38 41 42 43 42 40 39 40 42 46 47 39 18 12 22 20 15 13 28 29 25 22 15 21 31 37 34 37 42 55 58 47 54 56 57 54 49 39
27 28 31 33 36 37 37 36 37 39 42 45 45 44 42 41 38 43 48 44 37 21 17 18 29 21 25 28 21 18 25 18 13 19 25 31 32 41 45 61 56 55 53 51 49 45 46
26 29 31 34 36 36 35 36 37 40 43 44 45 42 41 39 40 44 42 30 32 26 22 6 23 19 23 28 23 20 23 23 18 15 19 30 42 46 42 41 48 50 51 55 40 39 42
28 30 33 34 34 34 34 35 37 40 43 43 45 41 41 37 41 42 32 30 28 25 21 14 19 17 30 31 13 25 29 21 18 20 18 30 40 35 43 41 51 54 53 42 47 38 34
31 32 32 33 34 35 35 35 36 40 42 44 43 40 38 40 41 35 27 25 24 20 4 18 25 21 30 33 10 25 25 23 15 10 18 22 33 31 39 50 44 44 49 40 30 30 33
31 31 32 34 36 38 37 35 36 39 41 42 42 38 35 38 38 32 28 21 18 12 5 22 23 24 25 28 24 29 25 25 14 17 15 14 27 43 35 44 49 38 35 42 39 33 25
32 33 35 36 37 39 38 37 37 40 42 43 41 35 35 36 29 24 22 15 21 8 6 17 27 33 30 31 30 27 22 28 10 13 9 23 16 27 45 31 36 36 31 31 33 33 19
32 34 36 38 39 41 42 41 40 42 43 43 40 32 34 34 30 25 20 16 9 16 23 22 31 28 26 33 33 32 26 29 28 21 23 13 25 17 22 41 29 34 37 10 11 9 10
34 36 38 39 40 42 44 43 42 42 44 43 39 28 32 30 22 23 23 9 10 19 21 30 27 27 25 32 32 32 22 18 22 25 19 12 6 17 20 30 43 37 32 8 8 9 18
35 37 39 40 41 42 44 45 44 43 45 45 39 26 29 27 22 23 17 17 10 19 23 28 27 24 28 32 30 30 20 15 17 29 20 10 6 7 8 25 30 41 35 23 23 30 9
36 38 39 41 42 42 44 46 46 45 46 46 41 30 31 25 22 22 21 12 11 18 26 23 24 18 33 35 35 28 19 12 11 23 20 8 14 6 6 20 23 22 50 37 36 15 15
36 38 40 42 43 43 44 45 47 48 47 47 41 31 21 26 25 24 19 18 19 20 22 21 24 26 28 35 32 23 21 17 18 27 18 13 7 10 4 14 11 17 32 40 39 26 16
37 38 40 42 43 44 44 45 46 49 49 50 47 36 23 30 23 20 21 23 23 22 23 17 19 21 25 35 22 17 24 17 23 22 15 10 8 13 9 4 14 12 20 42 22 23 30
38 39 40 41 43 44 44 45 45 47 49 50 48 41 35 34 24 28 22 17 19 26 23 27 17 22 35 28 14 17 29 21 21 20 19 18 9 11 4 4 6 6 4 22 26 28 27
39 40 41 42 43 44 44 45 45 46 48 48 47 39 31 26 18 24 23 21 25 24 21 27 21 24 33 24 21 14 25 22 18 25 15 8 6 6 6 8 8 9 7 1 21 17 21
40 40 41 42 43 44 44 44 45 46 47 48 48 41 40 36 25 23 19 18 24 27 25 23 24 26 28 26 26 21 22 25 15 24 24 13 4 13 5 8 11 15 10 4 10 11 6
44 41 41 41 43 44 44 44 44 45 47 49 46 44 43 37 19 19 18 19 19 24 19 19 25 29 22 19 20 25 19 17 17 26 28 17 5 12 15 12 20 28 23 7 6 6 7
49 43 41 40 40 42 44 44 43 43 44 47 45 45 41 39 19 18 17 24 25 22 16 19 23 24 22 23 18 11 13 15 19 25 29 24 11 7 7 9 13 9 23 17 23 18 2
49 45 42 40 40 41 42 44 42 41 41 42 43 43 40 38 23 16 18 23 23 16 17 19 21 20 24 16 12 11 9 11 14 20 27 26 9 5 2 9 3 7 15 7 10 13 19
48 48 44 42 41 41 42 42 42 41 41 42 43 42 36 36 24 15 20 22 20 16 16 20 25 15 21 16 14 8 11 6 7 14 26 21 10 6 4 12 14 2 17 7 7 7 16
49 51 45 43 42 41 42 42 41 39 39 41 42 40 31 30 12 21 21 19 19 20 21 21 26 20 17 15 9 8 7 12 8 17 23 16 17 7 7 4 4 13 14 7 4 7 14
47 50 45 41 42 43 43 42 41 38 38 42 44 40 35 30 17 16 17 19 17 17 21 21 28 25 18 14 9 9 6 10 9 14 23 24 14 16 13 4 2 20 14 4 3 10 26
43 47 43 42 42 42 43 42 41 39 36 41 43 39 34 29 14 13 14 14 13 14 20 24 23 20 13 13 7 8 6 9 8 16 13 11 10 9 7 5 2 20 7 11 16 18 20
41 43 41 42 42 43 43 42 41 40 35 39 41 38 30 24 18 13 11 11 9 11 17 22 21 17 11 11 12 12 14 8 16 7 11 5 8 6 6 4 12 21 15 21 23 25 24
Wind_Direction
344 346 345 347 343 343 342 343 343 341 340 339 335 334 334 332 333 331 329 328 323 315 313 308 302 298 295 287 277 277 251 237 217 226 229 223 221 217 221 220 218 225 228 232 232 233 236
349 350 348 345 343 344 346 345 342 340 341 342 340 340 337 334 335 334 333 333 326 320 320 316 309 303 296 285 292 289 258 234 228 228 225 212 221 220 224 226 221 222 228 229 234 236 235
353 350 347 345 345 347 346 344 344 344 348 347 346 341 339 336 334 334 334 335 328 322 320 320 313 305 300 303 297 306 278 244 239 233 210 204 218 216 218 223 225 225 225 234 224 233 234
352 349 345 346 347 347 346 345 347 346 349 348 347 344 341 337 334 335 334 333 330 323 324 333 323 328 310 315 326 325 296 249 230 231 224 202 208 209 217 221 227 225 228 233 230 224 229
352 348 348 349 348 348 348 346 345 348 349 348 348 346 344 340 336 335 333 330 333 330 337 352 346 326 327 328 325 321 321 292 250 227 228 229 206 209 208 214 220 219 226 226 227 225 223
352 352 352 352 350 351 351 349 347 349 347 347 345 345 344 343 337 336 333 330 336 339 352 10 355 14 309 327 328 331 318 333 283 244 235 234 228 215 211 200 208 213 219 226 224 221 223
355 354 355 356 355 355 354 351 348 349 348 344 342 341 343 346 343 339 335 335 338 14 11 1 4 342 332 328 332 347 337 330 308 260 236 227 226 227 213 203 207 216 221 225 225 225 222
357 1 1 2 359 357 356 352 351 352 348 343 341 341 343 349 348 340 342 344 350 343 350 322 2 342 337 340 335 337 332 327 309 256 236 218 221 224 221 223 207 215 221 229 227 223 222
4 6 4 4 2 0 360 355 354 352 349 344 344 343 346 352 349 348 347 347 342 335 339 15 349 349 351 348 351 339 336 330 310 260 234 216 220 221 221 221 210 215 221 223 226 220 224
6 6 5 4 5 4 3 358 355 353 352 346 347 345 351 355 355 354 356 340 340 340 349 352 357 353 356 352 342 341 346 342 321 280 237 234 217 220 218 224 217 213 218 222 230 204 213
6 3 2 6 9 7 7 1 356 355 354 350 349 347 355 1 355 3 359 357 359 12 3 338 347 338 348 359 344 353 339 352 328 300 287 226 210 214 219 222 215 219 216 217 228 232 214
3 1 1 4 8 9 8 5 1 357 357 354 354 352 354 4 9 5 8 15 24 7 356 333 336 343 349 355 353 352 354 349 10 332 313 261 215 214 220 221 230 217 210 204 214 231 225
1 360 360 2 4 6 7 7 5 0 360 357 359 355 358 1 10 18 14 27 10 17 339 337 339 338 341 350 351 354 353 3 19 356 343 305 234 207 204 215 214 217 189 166 192 217 224
358 358 358 0 3 3 4 6 5 3 3 1 1 360 2 3 12 11 27 16 37 348 342 344 338 338 345 349 350 351 357 5 3 6 345 338 221 226 203 204 208 209 204 174 133 178 216
358 356 357 358 360 1 1 3 5 3 6 6 4 7 11 12 16 13 33 37 9 345 336 332 336 339 341 348 348 349 1 9 9 1 3 322 286 342 245 202 193 206 207 199 200 215 234
356 354 355 356 358 358 360 1 1 3 5 8 7 10 16 17 13 24 29 27 10 351 344 340 340 336 333 345 346 349 356 344 359 350 347 306 303 329 278 226 212 208 202 204 224 221 209
354 353 353 354 354 355 357 358 359 1 3 8 11 15 5 7 23 23 22 11 3 2 347 334 329 330 343 343 342 345 350 346 331 330 342 319 290 300 293 204 235 184 201 208 217 222 223
354 352 353 352 350 352 353 355 357 359 360 5 10 15 4 7 18 22 7 3 358 359 360 348 339 343 342 339 334 351 348 345 346 345 343 336 304 304 288 293 212 197 204 200 207 204 225
354 352 352 352 349 349 351 352 354 357 358 1 3 9 14 13 13 11 11 8 2 354 0 358 341 352 347 344 343 351 351 11 12 8 357 355 355 326 17 168 102 191 58 205 213 213 212
351 350 350 350 348 347 348 349 350 355 356 357 3 4 5 14 4 350 359 356 357 356 9 359 352 349 347 353 354 325 350 357 359 15 355 335 337 327 326 336 346 360 352 146 214 230 228
350 347 347 346 345 345 346 348 349 351 354 355 0 359 360 356 355 352 349 352 345 349 356 2 354 349 345 340 346 340 347 360 4 11 17 19 336 335 306 138 59 50 45 65 154 178 208
350 347 345 343 343 343 344 346 348 349 352 355 355 352 349 357 344 340 347 334 336 344 343 343 339 336 345 342 329 321 355 3 9 6 7 15 1 20 107 150 75 61 50 49 72 97 165
353 348 344 341 340 341 343 343 347 347 349 351 350 347 343 350 337 334 330 329 334 340 1 356 334 340 346 337 334 322 328 338 349 5 353 5 350 359 158 174 344 10 25 35 55 47 324
351 347 344 342 340 340 340 341 343 345 345 348 345 342 337 335 337 320 322 328 335 346 333 357 352 344 341 342 334 360 344 335 3 1 357 356 4 349 282 229 63 131 354 347 11 31 32
347 346 341 341 341 339 339 338 340 342 341 343 344 339 332 326 329 339 321 334 339 344 348 355 357 333 342 351 348 353 352 340 349 353 4 12 23 328 347 69 127 40 352 305 287 289 4
343 344 339 338 339 338 336 336 338 337 337 337 344 339 327 320 334 312 325 330 334 342 355 355 350 353 7 5 354 345 2 343 324 342 359 24 46 54 22 54 52 2 16 336 235 244 337
339 340 339 334 335 335 336 333 334 335 335 334 340 339 327 316 327 321 321 319 327 335 343 350 353 357 358 359 342 354 331 353 331 340 348 5 19 27 23 54 89 4 17 354 333 302 324
336 336 336 333 332 333 334 332 333 331 334 333 337 334 328 316 322 314 318 318 323 335 340 345 0 340 355 356 333 345 306 329 333 325 350 6 4 0 1 0 24 341 345 10 320 322 325
334 335 334 330 330 333 333 332 331 330 332 330 334 331 326 315 316 303 318 317 311 329 339 352 345 337 320 332 317 313 302 310 317 319 329 333 353 326 355 287 321 330 328 341 337 333 328